Change the Weather History Date:

Saturday, July 13, 2013

  Actual Average Record
Temperature  
Mean Temperature 76 °F 73 °F  
Max Temperature 93 °F 94 °F 104 °F (1983)
Min Temperature 58 °F 52 °F 38 °F (1962)
Degree Days  
Heating Degree Days 0 0  
Month to date heating degree days 0 4  
Since 1 June heating degree days 28 60  
Since 1 July heating degree days 0 4  
Cooling Degree Days 11 8  
Month to date cooling degree days 158 91  
Year to date cooling degree days 292 213  
Since 1 June cooling degree days 265 183  
Growing Degree Days 26 (Base 50)    
Moisture  
Dew Point 53 °F    
Average Humidity 54    
Maximum Humidity 84    
Minimum Humidity 23    
Precipitation  
Precipitation 0.00 in 0.01 in 0.01 in (1999)
Month to date precipitation 0.00 0.08  
Year to date precipitation 4.78 10.23  
Since 1 July precipitation 0.00 0.08  
Snow  
Snow 0.00 in - - ()
Month to date snowfall 0.0  
Year to date snowfall 0.0  
Since 1 July snowfall 0.0  
Snow Depth 0.00 in    
Sea Level Pressure  
Sea Level Pressure 29.85 in    
Wind  
Wind Speed 6 mph (SW)    
Max Wind Speed 21 mph    
Max Gust Speed 25 mph    
T = Trace of Precipitation, MM = Missing Value Source: NWS Daily Summary

Daily Weather History Graph

Daily Weather History Graph

Search for Another Location

Airport or City:

Trip Planner

Search our weather history database for the weather conditions in past years. The results will help you decide how hot, cold, wet, or windy it might be!

Date:

Astronomy

Jul. 13, 2013 Rise Set
Actual Time 5:48 AM PDT 7:55 PM PDT
Civil Twilight 5:20 AM PDT 8:22 PM PDT
Nautical Twilight 4:45 AM PDT 8:57 PM PDT
Astronomical Twilight 4:09 AM PDT 9:33 PM PDT
Moon 10:48 AM PDT (7/13) 11:00 PM PDT (7/13)
Length of Visible Light 15h 02m
Length of Day
14h 07m
Waxing Crescent, 26% of the Moon is Illuminated
Jul 13
Waxing Crescent
Jul 15
First Quarter
Jul 22
Full
Jul 29
Last Quarter
Aug 6
New

Hourly Weather History & Observations

Time (PDT) Temp. Heat Index Dew Point Humidity Pressure Visibility Wind Dir Wind Speed Gust Speed Precip Events Conditions
12:52 AM 63.0 °F - 55.0 °F 75% 29.86 in - Calm Calm - N/A   Unknown
1:52 AM 62.1 °F - 55.0 °F 78% 29.86 in - Calm Calm - N/A   Unknown
2:52 AM 61.0 °F - 54.0 °F 78% 29.86 in - NE 3.5 mph - N/A   Unknown
3:52 AM 61.0 °F - 55.0 °F 81% 29.86 in - Calm Calm - N/A   Unknown
4:52 AM 59.0 °F - 53.1 °F 81% 29.85 in - Calm Calm - N/A   Unknown
5:52 AM 60.1 °F - 54.0 °F 80% 29.87 in - NE 3.5 mph - N/A   Unknown
6:52 AM 63.0 °F - 55.0 °F 75% 29.88 in - NE 3.5 mph - N/A   Unknown
7:52 AM 72.0 °F - 57.0 °F 59% 29.88 in - Calm Calm - N/A   Unknown
8:52 AM 78.1 °F - 55.0 °F 45% 29.88 in - Calm Calm - N/A   Unknown
9:52 AM 82.9 °F 81.9 °F 54.0 °F 37% 29.87 in - Variable 3.5 mph - N/A   Unknown
10:52 AM 86.0 °F 84.2 °F 54.0 °F 33% 29.86 in - SSW 13.8 mph - N/A   Unknown
11:52 AM 88.0 °F 85.9 °F 54.0 °F 31% 29.84 in - SW 18.4 mph - N/A   Unknown
12:52 PM 91.9 °F 89.5 °F 53.1 °F 27% 29.84 in - WSW 9.2 mph 20.7 mph N/A   Unknown
1:52 PM 91.9 °F - 52.0 °F 26% 29.83 in - WSW 13.8 mph 19.6 mph N/A   Unknown
2:52 PM 93.0 °F - 50.0 °F 23% 29.82 in - West 10.4 mph 23.0 mph N/A   Unknown
3:52 PM 91.0 °F - 48.0 °F 23% 29.81 in - WSW 11.5 mph 20.7 mph N/A   Unknown
4:52 PM 90.0 °F - 48.9 °F 24% 29.81 in - WSW 10.4 mph 20.7 mph N/A   Unknown
5:52 PM 84.9 °F - 51.1 °F 31% 29.81 in - SW 15.0 mph 21.9 mph N/A   Unknown
6:52 PM 80.1 °F - 52.0 °F 38% 29.82 in - SSW 15.0 mph - N/A   Unknown
7:52 PM 73.9 °F - 52.0 °F 46% 29.84 in - SSW 9.2 mph - N/A   Unknown
8:52 PM 71.1 °F - 52.0 °F 51% 29.85 in - South 5.8 mph - N/A   Unknown
9:52 PM 69.1 °F - 52.0 °F 54% 29.86 in - Calm Calm - N/A   Unknown
10:52 PM 68.0 °F - 50.0 °F 52% 29.87 in - Calm Calm - N/A   Unknown
11:52 PM 66.9 °F - 50.0 °F 54% 29.86 in - NE 3.5 mph - N/A   Unknown